Torna al catalogo

STARLINK-37097

AttivoComunicazioniVLEO
NORAD 68238·PAYLOAD·🇺🇸 United States

Lanciato Mar 17, 2026 da Vandenberg Space Force Base

Loading…

Prossimi Passaggi (prossime 24 ore)

TLE

AggiornatoSource: CelesTrak SupGP

Epoca: Sep 15, 2026, 04:20 UTC

1 68238C 26054G   26258.18104167  .00022110  00000+0  65334-3 0  2582
2 68238  53.1573 126.5169 0001464  61.6611  40.4185 15.34374305    17

Traccia STARLINK-37097 in tempo reale con AllMySat

Download on the App Store